Flight Track Log - Related Links

Times and Time Zones

All times are in EDT time to prevent confusion due to time zone crossing. See the EJA122 flight status page for this flight to view local times or setup timezone preferences in your user account.

Time Position Orientation Groundspeed Altitude Reporting Facility
EDT Latitude Longitude Course Direction KTS MPH feet Rate Location/Type
Thu 05:20:56 PM 40.4167 -105.0000 114° Southeast 187 215 5,800  Level Denver TRACON
Thu 05:21:56 PM 40.4000 -104.9500 114° Southeast 210 242 8,200 1,973 Climbing Denver TRACON
Thu 05:23:25 PM 40.3225 -104.8536 137° Southeast 249 287 10,700 1,776 Climbing Denver Center
Thu 05:24:28 PM 40.2569 -104.7853 141° Southeast 296 341 12,700 1,920 Climbing Denver Center
Thu 05:25:30 PM 40.1836 -104.7114 142° Southeast 311 358 14,700 1,742 Climbing Denver Center
Thu 05:26:32 PM 40.1353 -104.6164 124° Southeast 327 376 16,300 1,500 Climbing Denver Center
Thu 05:27:34 PM 40.1189 -104.4872 99° East 337 388 17,800 1,258 Climbing Denver Center
Thu 05:28:36 PM 40.1031 -104.3639 99° East 343 395 18,900 1,161 Climbing Denver Center
Thu 05:29:38 PM 40.0625 -104.2344 112° Southeast 368 423 20,200 1,210 Climbing Denver Center
Thu 05:30:40 PM 39.9753 -104.1631 148° Southeast 373 429 21,400 1,113 Climbing Denver Center
Thu 05:31:42 PM 39.9339 -104.0392 114° Southeast 378 435 22,500 1,161 Climbing Denver Center
Thu 05:32:44 PM 39.9536 -103.8936 80° East 387 445 23,800 1,258 Climbing Denver Center
Thu 05:33:46 PM 40.0139 -103.7783 56° Northeast 392 451 25,100 1,113 Climbing Denver Center
Thu 05:34:48 PM 40.0494 -103.6486 70° East 373 429 26,100 1,016 Climbing Denver Center
Thu 05:35:50 PM 40.0806 -103.5097 74° East 395 455 27,200 968 Climbing Denver Center
Thu 05:36:52 PM 40.1125 -103.3706 73° East 400 460 28,100 1,016 Climbing Denver Center
Thu 05:37:54 PM 40.1517 -103.2022 73° East 405 466 29,300 968 Climbing Denver Center
Thu 05:38:56 PM 40.1722 -103.0553 80° East 411 473 30,100 768 Climbing Denver Center
Thu 05:39:59 PM 40.1944 -102.9058 79° East 418 481 30,900 768 Climbing Denver Center
Thu 05:41:01 PM 40.2156 -102.7550 80° East 422 486 31,700 774 Climbing Denver Center
Thu 05:42:03 PM 40.2361 -102.6025 80° East 427 491 32,500 774 Climbing Denver Center
Thu 05:43:05 PM 40.2592 -102.4306 80° East 430 495 33,300 629 Climbing Denver Center
Thu 05:44:07 PM 40.2856 -102.2814 77° East 438 504 33,800 532 Climbing Denver Center
Thu 05:45:09 PM 40.3153 -102.1050 77° East 444 511 34,400 484 Climbing Denver Center
Thu 05:46:11 PM 40.3431 -101.9528 76° East 447 514 34,800 290 Climbing Denver Center
Thu 05:47:13 PM 40.3733 -101.7731 77° East 452 520 35,000 97 Climbing Denver Center
Thu 05:48:15 PM 40.4006 -101.6144 77° East 464 534 35,000  Level Denver Center
Thu 05:49:17 PM 40.4314 -101.4261 78° East 474 545 35,000  Level Denver Center
Thu 05:50:19 PM 40.4583 -101.2611 78° East 482 555 35,000  Level Denver Center
Thu 05:51:21 PM 40.4892 -101.0694 78° East 484 557 35,000  Level Denver Center
Thu 05:52:23 PM 40.5156 -100.9047 78° East 484 557 35,000  Level Denver Center
Thu 05:53:25 PM 40.5456 -100.7142 78° East 481 554 35,000  Level Denver Center
Thu 05:54:28 PM 40.5714 -100.5511 78° East 482 555 35,000  Level Denver Center
Thu 05:55:30 PM 40.6019 -100.3628 78° East 478 550 35,000  Level Denver Center
Thu 05:56:32 PM 40.6267 -100.1986 79° East 480 552 35,000  Level Denver Center
Thu 05:57:34 PM 40.6564 -100.0069 78° East 481 554 35,000  Level Denver Center
Thu 05:58:36 PM 40.6842 -99.8203 79° East 483 556 35,000  Level Denver Center
Thu 05:59:38 PM 40.7106 -99.6461 79° East 485 558 35,000  Level Denver Center
Thu 06:00:42 PM 40.7361 -99.4706 79° East 489 563 35,000  Level Denver Center
Thu 06:01:44 PM 40.7619 -99.2972 79° East 484 557 35,000  Level Denver Center
Thu 06:02:46 PM 40.7919 -99.0864 79° East 491 565 35,000  Level Denver Center
Thu 06:03:48 PM 40.8161 -98.9172 79° East 491 565 35,000  Level Denver Center
Thu 06:04:50 PM 40.8414 -98.7361 79° East 491 565 35,000  Level Denver Center
Thu 06:05:52 PM 40.8658 -98.5594 80° East 494 568 35,000  Level Denver Center
Thu 06:07:05 PM 40.8953 -98.3478 80° East 495 570 35,000  Level Minneapolis Center
Thu 06:08:07 PM 40.9239 -98.1342 80° East 495 570 35,000  Level Minneapolis Center
Thu 06:09:09 PM 40.9478 -97.9558 80° East 496 571 35,000  Level Minneapolis Center
Thu 06:10:11 PM 40.9714 -97.7764 80° East 496 571 35,000  Level Minneapolis Center
Thu 06:11:13 PM 40.9950 -97.5964 80° East 497 572 35,000  Level Minneapolis Center
Thu 06:12:16 PM 41.0183 -97.4178 80° East 495 570 35,000  Level Minneapolis Center
Thu 06:13:18 PM 41.0422 -97.2264 81° East 495 570 35,000  Level Minneapolis Center
Thu 06:14:20 PM 41.0644 -97.0472 81° East 494 568 35,000  Level Minneapolis Center
Thu 06:15:22 PM 41.0869 -96.8683 80° East 493 567 35,000  Level Minneapolis Center
Thu 06:16:24 PM 41.1136 -96.6522 81° East 497 572 35,000  Level Minneapolis Center
Thu 06:17:26 PM 41.1353 -96.4722 81° East 495 570 35,000  Level Minneapolis Center
Thu 06:18:28 PM 41.1564 -96.3031 81° East 494 568 35,000  Level Minneapolis Center
Thu 06:19:30 PM 41.1767 -96.1231 81° East 494 568 35,000 -629 Level Minneapolis Center
Thu 06:20:32 PM 41.2017 -95.9064 81° East 494 568 33,700 -1,392 Descending Minneapolis Center
Thu 06:21:35 PM 41.2228 -95.7286 81° East 488 562 32,100 -1,488 Descending Minneapolis Center
Thu 06:22:37 PM 41.2406 -95.5514 82° East 490 564 30,600 -1,597 Descending Minneapolis Center
Thu 06:23:39 PM 41.2619 -95.3733 81° East 491 565 28,800 -2,177 Descending Minneapolis Center
Thu 06:24:41 PM 41.2811 -95.2019 81° East 476 548 26,100 -2,758 Descending Minneapolis Center
Thu 06:25:43 PM 41.2975 -95.0328 83° East 465 535 23,100 -2,758 Descending Minneapolis Center
Thu 06:26:45 PM 41.3153 -94.8647 82° East 462 532 20,400 -2,516 Descending Minneapolis Center
Thu 06:27:47 PM 41.3364 -94.6767 81° East 437 503 17,900 -2,198 Descending Minneapolis Center
Thu 06:28:26 PM 41.3511 -94.5658 80° East 423 487 16,700 -2,000 Descending Minneapolis Center
Thu 06:29:20 PM 41.3678 -94.4258 81° East 415 478 14,800 -1,976 Descending Minneapolis Center
Thu 06:29:51 PM 41.3664 -94.3761 92° East 411 473 13,900 -2,066 Descending Minneapolis Center
Thu 06:30:21 PM 41.3819 -94.2833 77° East 398 458 12,700 -2,032 Descending Minneapolis Center
Thu 06:30:53 PM 41.3800 -94.2322 93° East 398 458 11,800 -1,532 Descending Minneapolis Center
Thu 06:31:55 PM 41.3942 -94.1114 81° East 337 388 10,300 -2,064 Descending Minneapolis Center
Thu 06:32:58 PM 41.4047 -93.9878 83° East 292 336 7,500 -2,592 Descending Minneapolis Center
Thu 06:34:00 PM 41.4189 -93.8767 80° East 285 328 4,900 -2,177 Descending Minneapolis Center
Thu 06:35:02 PM 41.4389 -93.7811 74° East 272 313 3,000 -1,161 Descending Minneapolis Center
Thu 06:36:04 PM 41.4606 -93.6842 73° East 257 296 2,500 -290 Descending Minneapolis Center
Thu 06:37:06 PM 41.4797 -93.6158 69° East 202 232 2,400 -532 Descending Minneapolis Center
Thu 06:38:08 PM 41.5156 -93.6289 345° North 142 163 1,400 -726 Descending Minneapolis Center
Thu 06:39:10 PM 41.5378 -93.6606 313° West 115 132 900 -242 Descending Minneapolis Center
Thu 06:40:12 PM 41.5381 -93.6603 37° Northeast 25 29 900  Level Minneapolis Center
Thu 06:41:14 PM 41.5383 -93.6533 87° East 18 21 900  Level Minneapolis Center
Thu 06:42:16 PM 41.5364 -93.6503 130° Southeast 11 13 900  Level Minneapolis Center
Thu 06:43:19 PM 41.5342 -93.6461 125° Southeast 13 15 900  Level Minneapolis Center

Login

Don't have an account? Register now (free) for customized features, flight alerts, and more!